Location: 相模原市立博物館
(35.5593°N, 139.3931°E)
Time: 10:24:31
(UTC+09:00)

NOAA 19 - Visible Passes

Search period start: 18 August 2022 00:00
Search period end: 28 August 2022 00:00
Orbit: 840 x 861 km, 99.1° (Epoch: 17 August)

Date Brightness Start Highest point End Pass type
(mag) Time Alt. Az. Time Alt. Az. Time Alt. Az.
18 Aug 7.6 20:19:38 10° SW 20:23:25 19° W 20:27:13 10° NW visible
19 Aug 7.2 20:07:01 10° SSW 20:11:25 25° W 20:15:51 10° NW visible
20 Aug 6.8 19:54:37 10° SSW 19:59:27 32° W 20:04:19 10° NW visible
21 Aug 6.4 19:42:22 10° S 19:47:29 42° W 19:52:39 10° NNW visible
22 Aug 5.9 19:30:14 10° S 19:35:33 55° W 19:40:56 10° NNW visible
23 Aug 5.4 19:18:13 10° S 19:23:39 73° WSW 19:29:07 10° NNW visible
24 Aug 5.2 19:06:18 10° SSE 19:11:45 87° ENE 19:17:15 10° NNW visible
25 Aug 5.2 18:54:29 10° SSE 18:59:52 68° ENE 19:05:19 10° N visible
25 Aug 7.9 20:38:33 10° WSW 20:40:57 13° W 20:43:21 10° WNW visible
26 Aug 5.4 18:42:45 10° SSE 18:48:01 52° ENE 18:53:19 10° N visible
26 Aug 7.7 20:25:25 10° SW 20:28:55 17° W 20:32:27 10° NW visible
27 Aug 7.4 20:12:43 10° SSW 20:16:54 23° W 20:21:09 10° NW visible
